Weather History for KMCJ - April, 2013

Change the Weather History Date:

Tuesday, April 9, 2013

  Actual Average (KHOU) Record (KHOU)
Temperature  
Mean Temperature 74 °F 68 °F  
Max Temperature 80 °F 78 °F 92 °F (1963)
Min Temperature 68 °F 58 °F 36 °F (1973)
Degree Days  
Heating Degree Days 0 2  
Month to date heating degree days 18  
Since 1 July heating degree days 1347  
Cooling Degree Days 9 5  
Month to date cooling degree days 38  
Year to date cooling degree days 147  
Growing Degree Days 24 (Base 50)    
Moisture  
Dew Point 67 °F    
Average Humidity 81    
Maximum Humidity 94    
Minimum Humidity 61    
Precipitation  
Precipitation 0.00 in 0.10 in 2.68 in (1913)
Month to date precipitation 0.90  
Year to date precipitation 10.89  
Sea Level Pressure  
Sea Level Pressure 29.74 in    
Wind  
Wind Speed 17 mph (SSE)    
Max Wind Speed 29 mph    
Max Gust Speed 37 mph    
Visibility 5 miles    
Events      
T = Trace of Precipitation, MM = Missing Value Source: NWS Daily Summary

Daily Weather History Graph

Daily Weather History Graph

Search for Another Location

Airport or City:

Trip Planner

Search our weather history database for the weather conditions in past years. The results will help you decide how hot, cold, wet, or windy it might be!

Date:

Astronomy

Apr. 09, 2013 Rise Set
Actual Time 7:01 AM CDT 7:45 PM CDT
Civil Twilight 6:37 AM CDT 8:09 PM CDT
Nautical Twilight 6:08 AM CDT 8:37 PM CDT
Astronomical Twilight 5:39 AM CDT 9:07 PM CDT
Moon 6:22 AM CDT (4/9) 7:21 PM CDT (4/9)
Length of Visible Light 13h 32m
Length of Day
12h 43m
Waning Crescent, 1% of the Moon is Illuminated
Apr 9
Waning Crescent
Apr 10
New
Apr 18
First Quarter
Apr 25
Full
May 2
Last Quarter

Hourly Weather History & Observations

Time (CDT) Temp. Heat Index Dew Point Humidity Pressure Visibility Wind Dir Wind Speed Gust Speed Precip Events Conditions
12:15 AM 71.6 °F - 66.2 °F 83% 29.76 in 5.0 mi SSE 20.7 mph 26.5 mph N/A   Overcast
12:35 AM 71.6 °F - 66.2 °F 83% 29.76 in 5.0 mi South 16.1 mph 24.2 mph N/A   Overcast
12:55 AM 71.6 °F - 66.2 °F 83% 29.78 in 5.0 mi South 16.1 mph 27.6 mph N/A   Overcast
1:15 AM 71.6 °F - 66.2 °F 83% 29.77 in 5.0 mi South 13.8 mph 21.9 mph N/A   Overcast
1:35 AM 71.6 °F - 66.2 °F 83% 29.76 in 5.0 mi South 12.7 mph 25.3 mph N/A   Overcast
1:55 AM 71.6 °F - 66.2 °F 83% 29.76 in 5.0 mi SSE 15.0 mph 23.0 mph N/A   Overcast
2:15 AM 69.8 °F - 66.2 °F 88% 29.76 in 5.0 mi South 12.7 mph 23.0 mph N/A   Overcast
2:35 AM 69.8 °F - 66.2 °F 88% 29.76 in 5.0 mi South 12.7 mph 19.6 mph N/A   Overcast
2:55 AM 69.8 °F - 66.2 °F 88% 29.75 in 5.0 mi SSE 12.7 mph 20.7 mph N/A   Mostly Cloudy
3:15 AM 69.8 °F - 66.2 °F 88% 29.74 in 5.0 mi SSE 15.0 mph 18.4 mph N/A   Mostly Cloudy
3:35 AM 68.0 °F - 66.2 °F 94% 29.74 in 5.0 mi SSE 19.6 mph 23.0 mph N/A   Mostly Cloudy
3:55 AM 68.0 °F - 66.2 °F 94% 29.74 in 5.0 mi SSE 13.8 mph 24.2 mph N/A   Mostly Cloudy
4:15 AM 68.0 °F - 66.2 °F 94% 29.74 in 5.0 mi SSE 16.1 mph 25.3 mph N/A   Mostly Cloudy
4:35 AM 68.0 °F - 66.2 °F 94% 29.74 in 5.0 mi SSE 11.5 mph 21.9 mph N/A   Mostly Cloudy
4:55 AM 68.0 °F - 66.2 °F 94% 29.75 in 5.0 mi SSE 9.2 mph 19.6 mph N/A   Mostly Cloudy
5:15 AM 68.0 °F - 66.2 °F 94% 29.75 in 5.0 mi SSE 13.8 mph 21.9 mph N/A   Mostly Cloudy
5:35 AM 68.0 °F - 66.2 °F 94% 29.74 in 5.0 mi SSE 16.1 mph 26.5 mph N/A   Overcast
5:55 AM 68.0 °F - 66.2 °F 94% 29.74 in 5.0 mi SSE 17.3 mph 25.3 mph N/A   Mostly Cloudy
6:15 AM 68.0 °F - 66.2 °F 94% 29.74 in 5.0 mi SSE 12.7 mph 17.3 mph N/A   Overcast
6:35 AM 68.0 °F - 66.2 °F 94% 29.74 in 5.0 mi SSE 12.7 mph 21.9 mph N/A   Overcast
6:55 AM 68.0 °F - 66.2 °F 94% 29.74 in 5.0 mi SSE 15.0 mph 24.2 mph N/A   Overcast
7:15 AM 68.0 °F - 66.2 °F 94% 29.74 in 3.0 mi SE 17.3 mph 25.3 mph N/A   Overcast
7:35 AM 68.0 °F - 66.2 °F 94% 29.75 in 3.0 mi SE 10.4 mph 20.7 mph N/A   Overcast
7:55 AM 68.0 °F - 66.2 °F 94% 29.75 in 4.0 mi SSE 18.4 mph 23.0 mph N/A   Mostly Cloudy
8:15 AM 69.8 °F - 66.2 °F 88% 29.75 in 4.0 mi SE 15.0 mph 21.9 mph N/A   Mostly Cloudy
8:35 AM 69.8 °F - 66.2 °F 88% 29.76 in 4.0 mi SE 12.7 mph 24.2 mph N/A   Mostly Cloudy
8:55 AM 71.6 °F - 64.4 °F 78% 29.76 in 5.0 mi SSE 17.3 mph 28.8 mph N/A   Mostly Cloudy
9:15 AM 71.6 °F - 64.4 °F 78% 29.76 in 5.0 mi SE 16.1 mph 29.9 mph N/A   Scattered Clouds
9:35 AM 73.4 °F - 64.4 °F 73% 29.77 in 5.0 mi SSE 16.1 mph 27.6 mph N/A   Mostly Cloudy
9:55 AM 73.4 °F - 66.2 °F 78% 29.77 in 5.0 mi SE 18.4 mph 27.6 mph N/A   Mostly Cloudy
10:15 AM 73.4 °F - 66.2 °F 78% 29.76 in 5.0 mi SSE 25.3 mph 34.5 mph N/A   Mostly Cloudy
10:35 AM 75.2 °F - 66.2 °F 73% 29.77 in 5.0 mi South 21.9 mph 32.2 mph N/A   Mostly Cloudy
10:55 AM 75.2 °F - 66.2 °F 73% 29.77 in 5.0 mi SSE 26.5 mph 33.4 mph N/A   Scattered Clouds
11:15 AM 77.0 °F - 66.2 °F 69% 29.77 in 6.0 mi SSE 23.0 mph 35.7 mph N/A   Scattered Clouds
11:35 AM 78.8 °F - 66.2 °F 65% 29.78 in 5.0 mi South 25.3 mph 31.1 mph N/A   Partly Cloudy
11:55 AM 78.8 °F - 66.2 °F 65% 29.77 in 7.0 mi SSE 21.9 mph 36.8 mph N/A   Scattered Clouds
12:15 PM 78.8 °F - 66.2 °F 65% 29.77 in 5.0 mi South 20.7 mph 35.7 mph N/A   Scattered Clouds
12:35 PM 80.6 °F 82.7 °F 66.2 °F 61% 29.75 in 5.0 mi SSE 28.8 mph 34.5 mph N/A   Scattered Clouds
12:55 PM 80.6 °F 82.7 °F 66.2 °F 61% 29.75 in 5.0 mi SSE 19.6 mph 35.7 mph N/A   Mostly Cloudy
1:15 PM 78.8 °F - 68.0 °F 69% 29.74 in 5.0 mi SSE 21.9 mph 35.7 mph N/A   Mostly Cloudy
1:35 PM 80.6 °F 83.2 °F 68.0 °F 65% 29.73 in 5.0 mi SSE 16.1 mph 35.7 mph N/A   Mostly Cloudy
1:55 PM 80.6 °F 83.2 °F 68.0 °F 65% 29.73 in 5.0 mi SSE 21.9 mph 29.9 mph N/A   Mostly Cloudy
2:15 PM 80.6 °F 83.2 °F 68.0 °F 65% 29.72 in 5.0 mi South 21.9 mph 35.7 mph N/A   Scattered Clouds
2:35 PM 78.8 °F - 68.0 °F 69% 29.72 in 5.0 mi South 18.4 mph 32.2 mph N/A   Mostly Cloudy
2:55 PM 78.8 °F - 68.0 °F 69% 29.71 in 5.0 mi South 23.0 mph 31.1 mph N/A   Mostly Cloudy
3:15 PM 78.8 °F - 68.0 °F 69% 29.70 in 4.0 mi SSE 24.2 mph 32.2 mph N/A   Mostly Cloudy
3:35 PM 78.8 °F - 68.0 °F 69% 29.69 in 4.0 mi South 26.5 mph 34.5 mph N/A   Mostly Cloudy
3:55 PM 78.8 °F - 68.0 °F 69% 29.68 in 4.0 mi South 27.6 mph 35.7 mph N/A   Mostly Cloudy
4:15 PM 78.8 °F - 68.0 °F 69% 29.68 in 4.0 mi South 23.0 mph 29.9 mph N/A   Overcast
4:35 PM 77.0 °F - 68.0 °F 74% 29.68 in 4.0 mi South 23.0 mph 34.5 mph N/A   Overcast
4:55 PM 77.0 °F - 68.0 °F 74% 29.69 in 4.0 mi South 17.3 mph 28.8 mph N/A   Overcast
5:15 PM 77.0 °F - 68.0 °F 74% 29.69 in 4.0 mi South 16.1 mph 27.6 mph N/A   Overcast
5:35 PM 77.0 °F - 69.8 °F 78% 29.69 in 4.0 mi South 19.6 mph 32.2 mph N/A   Overcast
5:55 PM 77.0 °F - 69.8 °F 78% 29.69 in 3.0 mi South 21.9 mph 29.9 mph N/A   Overcast
6:15 PM 75.2 °F - 69.8 °F 83% 29.68 in 3.0 mi South 19.6 mph 33.4 mph N/A   Overcast
6:35 PM 75.2 °F - 68.0 °F 78% 29.69 in 3.0 mi South 18.4 mph 28.8 mph N/A   Overcast
8:35 PM 73.4 °F - 69.8 °F 88% 29.73 in 4.0 mi SSE 23.0 mph 29.9 mph N/A   Overcast
8:55 PM 73.4 °F - 69.8 °F 88% 29.73 in 4.0 mi SSE 18.4 mph 28.8 mph N/A   Overcast
9:15 PM 73.4 °F - 69.8 °F 88% 29.74 in 4.0 mi SSE 15.0 mph 33.4 mph N/A   Overcast
9:55 PM 73.4 °F - 69.8 °F 88% 29.75 in 4.0 mi SSE 21.9 mph 32.2 mph N/A   Overcast
10:15 PM 73.4 °F - 69.8 °F 88% 29.76 in 4.0 mi SSE 17.3 mph 32.2 mph N/A   Overcast
10:35 PM 73.4 °F - 68.0 °F 83% 29.76 in 4.0 mi SSE 18.4 mph 28.8 mph N/A   Overcast
10:55 PM 73.4 °F - 69.8 °F 88% 29.77 in 4.0 mi South 15.0 mph 21.9 mph N/A   Overcast
11:15 PM 73.4 °F - 68.0 °F 83% 29.77 in 4.0 mi South 18.4 mph 29.9 mph N/A   Overcast
11:35 PM 73.4 °F - 68.0 °F 83% 29.77 in 4.0 mi SSE 15.0 mph 25.3 mph N/A   Overcast
11:55 PM 73.4 °F - 68.0 °F 83% 29.78 in 4.0 mi South 17.3 mph 25.3 mph N/A   Overcast